Oak Ridge, TN

4:30 PM EST on November 22, 2017 (GMT -0500)
Oak Ridge

Weather History for KOQT - December, 2013

Change the Weather History Date:

Tuesday, December 17, 2013

  Actual Average (KTYS) Record (KTYS)
Temperature  
Mean Temperature 42 °F -  
Max Temperature 55 °F 47 °F 74 °F (1924)
Min Temperature 30 °F 28 °F 10 °F (1882)
Degree Days  
Heating Degree Days 22    
Moisture  
Dew Point 29 °F    
Average Humidity 63    
Maximum Humidity 92    
Minimum Humidity 36    
Precipitation  
Precipitation 0.00 in - - ()
Sea Level Pressure  
Sea Level Pressure 30.17 in    
Wind  
Wind Speed 5 mph (WSW)    
Max Wind Speed 13 mph    
Max Gust Speed 24 mph    
Visibility 10 miles    
Events      
Averages and records for this station are not official NWS values.
T = Trace of Precipitation, MM = Missing Value Source: NWS Daily Summary

Daily Weather History Graph

Daily Weather History Graph

Search for Another Location

Airport or City:

Trip Planner

Search our weather history database for the weather conditions in past years. The results will help you decide how hot, cold, wet, or windy it might be!

Date:

Astronomy

Dec. 17, 2013 Rise Set
Actual Time 7:41 AM EST 5:24 PM EST
Civil Twilight 7:13 AM EST 5:53 PM EST
Nautical Twilight 6:40 AM EST 6:25 PM EST
Astronomical Twilight 6:09 AM EST 6:56 PM EST
Moon 6:01 PM EST (12/17) 7:39 AM EST (12/17)
Length of Visible Light 10h 40m
Length of Day
9h 43m
Full, 100% of the Moon is Illuminated
Dec 17
Full
Dec 25
Last Quarter
Jan 1
New
Jan 7
First Quarter
Jan 15
Full

Hourly Weather History & Observations

Time (EST) Temp. Windchill Dew Point Humidity Pressure Visibility Wind Dir Wind Speed Gust Speed Precip Events Conditions
12:53 AM 34.0 °F 31.0 °F 30.9 °F 89% 30.20 in 10.0 mi SW 3.5 mph - N/A   Clear
1:53 AM 33.1 °F 30.0 °F 30.9 °F 92% 30.20 in 10.0 mi SW 3.5 mph - N/A   Clear
2:53 AM 36.0 °F 33.3 °F 30.9 °F 82% 30.19 in 10.0 mi SW 3.5 mph - N/A   Clear
3:53 AM 34.0 °F 31.0 °F 30.9 °F 89% 30.20 in 10.0 mi SW 3.5 mph - N/A   Clear
4:53 AM 32.0 °F - 28.9 °F 88% 30.20 in 9.0 mi Calm Calm - N/A   Clear
5:53 AM 30.9 °F 27.5 °F 28.0 °F 89% 30.20 in 8.0 mi SSW 3.5 mph - N/A   Clear
6:53 AM 32.0 °F 27.5 °F 28.9 °F 88% 30.20 in 8.0 mi SW 4.6 mph - N/A   Clear
7:53 AM 32.0 °F 27.5 °F 30.0 °F 92% 30.20 in 10.0 mi SW 4.6 mph - N/A   Clear
8:53 AM 37.0 °F - 30.9 °F 79% 30.21 in 10.0 mi Calm Calm - N/A   Clear
9:53 AM 42.1 °F 39.2 °F 33.1 °F 70% 30.21 in 10.0 mi SW 4.6 mph - N/A   Clear
10:53 AM 46.0 °F 42.5 °F 32.0 °F 58% 30.19 in 10.0 mi WSW 6.9 mph - N/A   Clear
11:53 AM 50.0 °F - 33.1 °F 52% 30.15 in 10.0 mi Variable 5.8 mph - N/A   Clear
12:53 PM 52.0 °F - 33.1 °F 49% 30.11 in 10.0 mi SW 8.1 mph - N/A   Clear
1:53 PM 55.0 °F - 34.0 °F 45% 30.06 in 10.0 mi Variable 6.9 mph 17.3 mph N/A   Clear
2:53 PM 55.9 °F - 34.0 °F 44% 30.03 in 10.0 mi SW 11.5 mph 21.9 mph N/A   Clear
3:53 PM 55.9 °F - 34.0 °F 44% 30.03 in 10.0 mi SW 9.2 mph 17.3 mph N/A   Clear
4:53 PM 55.9 °F - 32.0 °F 40% 30.07 in 10.0 mi West 8.1 mph 23.0 mph N/A   Overcast
5:53 PM 53.1 °F - 33.1 °F 47% 30.11 in 10.0 mi WNW 12.7 mph 24.2 mph N/A   Overcast
6:53 PM 50.0 °F - 28.0 °F 43% 30.15 in 10.0 mi West 9.2 mph 20.7 mph N/A   Clear
7:53 PM 46.9 °F - 26.1 °F 44% 30.19 in 10.0 mi WNW 5.8 mph - N/A   Clear
8:53 PM 45.0 °F 39.7 °F 19.0 °F 36% 30.22 in 10.0 mi WNW 10.4 mph 19.6 mph N/A   Clear
9:53 PM 42.1 °F 37.7 °F 19.9 °F 41% 30.25 in 10.0 mi West 6.9 mph - N/A   Clear
10:53 PM 39.0 °F 36.8 °F 21.0 °F 49% 30.26 in 10.0 mi WSW 3.5 mph - N/A   Clear
11:53 PM 37.0 °F 34.5 °F 23.0 °F 57% 30.27 in 10.0 mi West 3.5 mph - N/A   Clear